Location: Gebenbach
(49.5378°N, 11.8735°E)
Time: 03:23:06
(UTC+00:00)

ERBS - Pass Details

Date: 29 October 2020
Orbit: 408 x 422 km, 57.0° (Epoch: 24 November)

Event Time Altitude Azimuth Distance (km) Brightness Sun altitude
Rises 18:18:45 0° 303° (WNW) 2,371 7.1 -23.8°
Reaches altitude 10° 18:20:57 10° 313° (NW) 1,508 5.8 -24.1°
Enters shadow 18:22:37 23° 332° (NNW) 940 4.3 -24.4°
